Location: Newark
(4.9167°N, 114.9167°E)
Time: 14:19:58
(UTC+00:00)

N. Korean satellite - Visible Passes

Search period start: 19 October 2019 00:00
Search period end: 29 October 2019 00:00
Orbit: 455 x 508 km, 97.2° (Epoch: 18 October)

Date Brightness Start Highest point End Pass type
(mag) Time Alt. Az. Time Alt. Az. Time Alt. Az.
19 Oct 10.2 21:09:46 10° ENE 21:11:52 15° E 21:14:00 10° SE visible
20 Oct 10.0 10:32:51 10° SW 10:35:03 16° W 10:37:15 10° WNW visible
22 Oct 9.1 21:26:08 10° NE 21:29:19 27° E 21:32:31 10° SSE visible
23 Oct 10.5 21:02:55 10° E 21:04:05 11° E 21:05:14 10° ESE visible
24 Oct 9.6 10:24:32 10° SSW 10:27:12 21° W 10:29:52 10° NW visible
26 Oct 9.7 21:18:38 10° NE 21:21:30 21° E 21:24:22 10° SSE visible
27 Oct 10.5 10:43:36 10° WSW 10:44:36 11° W 10:45:35 10° W visible
